History for KNYNEWYO562

Midtown, New York, NY — Current Conditions
Daily Summary for June 28, 2017
  Current: High: Low: Average:
Temperature: 63.3°F 69.1°F 63.3°F 66.2°F
Dew Point: 60.1°F 63.5°F 59.8°F 61.3°F
Humidity: 89% 89% 81% 85%
Wind Speed: - 0.0mph - 0.0mph
Wind Gust: - 0.0mph - -
Wind: North - - North
Pressure: 30.10in 30.10in 30.02in -
Precipitation: 0.00in      
Statistics for the rest of the month
    High: Low: Average:
Temperature:   96.3°F 53.4°F 72.9°F
Dew Point:   84.4°F 49.7°F 66.2°F
Humidity:   100.0% 49.0% 82.3%
Wind Speed:   0.0mph from the North - 0.0mph
Wind Gust:   0.0mph from the North - -
Wind:   - - North
Pressure:   30.10in 29.57in -
Precipitation:   0.00in    
KNYNEWYO562 Weather Graph
Tabular Data for June 28, 2017
Time Temp. Dew Point Pressure Wind Gust Humidity Rainfall
00:17 69.1°F 63.5°F 30.02in - 82% -
00:19 68.9°F 63.3°F 30.02in - 82% -
00:29 68.7°F 62.8°F 30.02in - 81% -
00:39 68.4°F 62.4°F 30.03in - 81% -
00:49 68.0°F 62.1°F 30.03in - 81% -
01:09 67.6°F 62.0°F 30.03in - 82% -
01:19 67.5°F 62.5°F 30.03in - 84% -
01:29 67.3°F 62.0°F 30.03in - 83% -
01:39 66.9°F 61.7°F 30.03in - 83% -
01:50 66.7°F 61.8°F 30.04in - 84% -
02:00 66.6°F 61.7°F 30.03in - 84% -
02:10 66.4°F 61.8°F 30.04in - 85% -
02:20 66.0°F 61.5°F 30.04in - 85% -
02:30 65.8°F 61.3°F 30.05in - 85% -
02:40 65.7°F 61.1°F 30.05in - 85% -
03:00 65.5°F 60.9°F 30.05in - 85% -
03:10 65.3°F 61.1°F 30.06in - 86% -
03:20 65.3°F 61.1°F 30.06in - 86% -
03:30 65.1°F 60.9°F 30.06in - 86% -
03:40 64.9°F 60.7°F 30.06in - 86% -
04:01 64.8°F 60.5°F 30.06in - 86% -
04:11 64.6°F 60.4°F 30.06in - 86% -
04:21 64.4°F 60.5°F 30.07in - 87% -
04:31 64.2°F 60.3°F 30.07in - 87% -
04:41 64.2°F 60.3°F 30.07in - 87% -
05:11 63.9°F 60.0°F 30.08in - 87% -
05:21 63.7°F 59.8°F 30.09in - 87% -
05:42 63.5°F 59.9°F 30.09in - 88% -
06:12 63.3°F 59.8°F 30.10in - 88% -
06:22 63.3°F 60.1°F 30.10in - 89% -
Comma Delimited File
Powered by Weather Underground, Inc.